{"data":{"norad_id":64165,"epoch":"2026-09-20T14:05:20.892768Z","epoch_age_seconds":132908,"freshness":"FRESH","line1":"1 64165U 25112V   26263.58704737  .00015933  00000+0  49441-3 0  9998","line2":"2 64165  97.2857 310.6901 0000569 109.9426 250.1878 15.33471271 72760","mean_motion":15.33471271,"eccentricity":5.69e-5,"inclination_deg":97.2857,"raan_deg":310.6901,"arg_perigee_deg":109.9426,"mean_anomaly_deg":250.1878,"bstar":0.00049441,"rev_number":7276,"period_min":93.904595882057,"perigee_km":465.0756106268,"apogee_km":465.85441253572,"semimajor_km":6843.6020115813,"source":"CELESTRAK","updated_at":"2026-09-21T09:00:35.241396Z"}}